Change the Weather History Date:

Wednesday, November 21, 2012

  Actual Average Record
Temperature  
Mean Temperature 46 °F -  
Max Temperature 62 °F 36 °F 67 °F (1990)
Min Temperature 30 °F 20 °F -2 °F (1964)
Degree Days  
Heating Degree Days 19    
Moisture  
Dew Point 38 °F    
Average Humidity 61    
Maximum Humidity 93    
Minimum Humidity 42    
Precipitation  
Precipitation 0.00 in - - ()
Sea Level Pressure  
Sea Level Pressure 29.89 in    
Wind  
Wind Speed 7 mph (SSW)    
Max Wind Speed 17 mph    
Max Gust Speed 24 mph    
Visibility 10 miles    
Events      
Averages and records for this station are not official NWS values.
T = Trace of Precipitation, MM = Missing Value Source: NWS Daily Summary

Daily Weather History Graph

Daily Weather History Graph

Search for Another Location

Airport or City:

Trip Planner

Search our weather history database for the weather conditions in past years. The results will help you decide how hot, cold, wet, or windy it might be!

Date:

Astronomy

Nov. 21, 2012 Rise Set
Actual Time 7:18 AM CST 4:39 PM CST
Civil Twilight 6:46 AM CST 5:11 PM CST
Nautical Twilight 6:10 AM CST 5:47 PM CST
Astronomical Twilight 5:35 AM CST 6:21 PM CST
Moon 1:09 PM CST (11/21) 12:22 AM CST (11/21)
Length of Visible Light 10h 25m
Length of Day
9h 21m
First Quarter, 62% of the Moon is Illuminated
Nov 21
First Quarter
Nov 28
Full
Dec 6
Last Quarter
Dec 13
New
Dec 19
First Quarter

Hourly Weather History & Observations

Time (CST) Temp. Windchill Dew Point Humidity Pressure Visibility Wind Dir Wind Speed Gust Speed Precip Events Conditions
12:13 AM 30.2 °F 25.4 °F 28.4 °F 93% 30.05 in 10.0 mi South 4.6 mph - N/A   Clear
12:34 AM 37.4 °F 32.1 °F 30.2 °F 75% 30.04 in 10.0 mi South 6.9 mph - N/A   Clear
12:53 AM 39.2 °F 34.2 °F 32.0 °F 75% 30.03 in 10.0 mi South 6.9 mph - N/A   Clear
1:13 AM 41.0 °F 35.2 °F 33.8 °F 76% 30.03 in 10.0 mi South 9.2 mph - N/A   Clear
1:34 AM 39.2 °F 35.0 °F 32.0 °F 75% 30.02 in 10.0 mi South 5.8 mph - N/A   Clear
1:53 AM 41.0 °F 35.8 °F 33.8 °F 76% 30.01 in 10.0 mi South 8.1 mph - N/A   Clear
2:13 AM 42.8 °F 37.0 °F 33.8 °F 70% 30.00 in 10.0 mi South 10.4 mph - N/A   Clear
2:34 AM 42.8 °F 37.5 °F 33.8 °F 70% 30.00 in 10.0 mi South 9.2 mph - N/A   Clear
2:53 AM 42.8 °F 37.0 °F 33.8 °F 70% 29.99 in 10.0 mi South 10.4 mph 16.1 mph N/A   Clear
3:13 AM 42.8 °F 36.6 °F 33.8 °F 70% 29.98 in 10.0 mi South 11.5 mph 19.6 mph N/A   Clear
3:34 AM 44.6 °F 39.2 °F 33.8 °F 66% 29.98 in 10.0 mi SSW 10.4 mph 17.3 mph N/A   Clear
3:53 AM 44.6 °F 38.8 °F 33.8 °F 66% 29.97 in 10.0 mi South 11.5 mph - N/A   Clear
4:13 AM 44.6 °F 38.4 °F 33.8 °F 66% 29.96 in 10.0 mi South 12.7 mph 18.4 mph N/A   Clear
4:34 AM 44.6 °F 40.2 °F 33.8 °F 66% 29.96 in 10.0 mi SSW 8.1 mph - N/A   Clear
4:53 AM 44.6 °F 42.2 °F 33.8 °F 66% 29.96 in 10.0 mi SSW 4.6 mph - N/A   Clear
5:13 AM 42.8 °F 39.3 °F 33.8 °F 70% 29.96 in 10.0 mi SSW 5.8 mph - N/A   Clear
5:34 AM 41.0 °F - 33.8 °F 76% 29.96 in 10.0 mi Calm Calm - N/A   Clear
5:53 AM 41.0 °F 38.0 °F 33.8 °F 76% 29.96 in 10.0 mi South 4.6 mph - N/A   Clear
6:14 AM 41.0 °F 39.0 °F 33.8 °F 76% 29.96 in 10.0 mi SSW 3.5 mph - N/A   Clear
6:33 AM 44.6 °F 42.2 °F 35.6 °F 71% 29.96 in 10.0 mi SSW 4.6 mph - N/A   Clear
6:54 AM 44.6 °F 43.1 °F 35.6 °F 71% 29.96 in 10.0 mi SSW 3.5 mph - N/A   Clear
7:14 AM 44.6 °F 43.1 °F 35.6 °F 71% 29.96 in 10.0 mi SSW 3.5 mph - N/A   Clear
7:33 AM 44.6 °F - 35.6 °F 71% 29.97 in 10.0 mi Calm Calm - N/A   Clear
7:53 AM 44.6 °F 43.1 °F 35.6 °F 71% 29.97 in 10.0 mi SW 3.5 mph - N/A   Clear
8:14 AM 46.4 °F 45.2 °F 35.6 °F 66% 29.96 in 10.0 mi SSW 3.5 mph - N/A   Clear
8:33 AM 46.4 °F 45.2 °F 35.6 °F 66% 29.97 in 10.0 mi SW 3.5 mph - N/A   Clear
8:53 AM 46.4 °F 44.3 °F 35.6 °F 66% 29.97 in 10.0 mi SW 4.6 mph - N/A   Clear
9:14 AM 48.2 °F - 37.4 °F 66% 29.96 in 10.0 mi SW 6.9 mph - N/A   Clear
9:33 AM 48.2 °F - 37.4 °F 66% 29.96 in 10.0 mi SSW 4.6 mph - N/A   Clear
9:53 AM 50.0 °F - 37.4 °F 62% 29.96 in 10.0 mi SSW 4.6 mph - N/A   Clear
10:14 AM 50.0 °F - 37.4 °F 62% 29.95 in 10.0 mi Calm Calm - N/A   Clear
10:33 AM 51.8 °F - 37.4 °F 58% 29.95 in 10.0 mi SSW 5.8 mph - N/A   Clear
10:53 AM 53.6 °F - 37.4 °F 54% 29.94 in 10.0 mi SSW 5.8 mph - N/A   Clear
11:14 AM 53.6 °F - 37.4 °F 54% 29.93 in 10.0 mi SSW 5.8 mph - N/A   Clear
11:33 AM 55.4 °F - 37.4 °F 51% 29.92 in 10.0 mi SSW 6.9 mph - N/A   Clear
11:53 AM 57.2 °F - 39.2 °F 51% 29.91 in 10.0 mi South 8.1 mph - N/A   Clear
12:14 PM 55.4 °F - 37.4 °F 51% 29.90 in 10.0 mi South 9.2 mph - N/A   Clear
12:33 PM 57.2 °F - 39.2 °F 51% 29.89 in 10.0 mi SSW 8.1 mph - N/A   Clear
12:53 PM 57.2 °F - 39.2 °F 51% 29.89 in 10.0 mi SSW 4.6 mph - N/A   Clear
1:13 PM 57.2 °F - 39.2 °F 51% 29.89 in 10.0 mi SSW 8.1 mph - N/A   Clear
1:33 PM 59.0 °F - 39.2 °F 48% 29.88 in 10.0 mi South 10.4 mph - N/A   Clear
1:54 PM 60.8 °F - 39.2 °F 45% 29.87 in 10.0 mi SSW 10.4 mph - N/A   Clear
2:13 PM 60.8 °F - 39.2 °F 45% 29.86 in 10.0 mi South 9.2 mph - N/A   Clear
2:34 PM 62.6 °F - 39.2 °F 42% 29.85 in 10.0 mi South 8.1 mph - N/A   Clear
2:54 PM 62.6 °F - 39.2 °F 42% 29.85 in 7.0 mi South 8.1 mph - N/A   Clear
3:13 PM 62.6 °F - 39.2 °F 42% 29.84 in 10.0 mi South 4.6 mph - N/A   Clear
3:34 PM 62.6 °F - 39.2 °F 42% 29.84 in 7.0 mi South 3.5 mph - N/A   Clear
3:59 PM 60.8 °F - 39.2 °F 45% 29.83 in 5.0 mi Calm Calm - N/A   Haze
4:13 PM 60.8 °F - 39.2 °F 45% 29.82 in 5.0 mi South 4.6 mph - N/A   Haze
4:34 PM 60.8 °F - 39.2 °F 45% 29.82 in 7.0 mi South 4.6 mph - N/A   Clear
4:53 PM 59.0 °F - 39.2 °F 48% 29.81 in 10.0 mi South 5.8 mph - N/A   Clear
5:14 PM 59.0 °F - 41.0 °F 51% 29.81 in 7.0 mi South 8.1 mph - N/A   Clear
5:33 PM 59.0 °F - 41.0 °F 51% 29.80 in 7.0 mi South 6.9 mph - N/A   Clear
5:53 PM 57.2 °F - 41.0 °F 55% 29.79 in 10.0 mi South 10.4 mph - N/A   Clear
6:14 PM 57.2 °F - 41.0 °F 55% 29.79 in 10.0 mi South 11.5 mph - N/A   Clear
6:33 PM 59.0 °F - 42.8 °F 55% 29.79 in 10.0 mi South 11.5 mph 17.3 mph N/A   Clear
6:53 PM 57.2 °F - 42.8 °F 59% 29.79 in 10.0 mi South 11.5 mph - N/A   Clear
7:14 PM 57.2 °F - 41.0 °F 55% 29.78 in 10.0 mi South 13.8 mph 20.7 mph N/A   Clear
7:33 PM 57.2 °F - 41.0 °F 55% 29.78 in 10.0 mi South 17.3 mph 24.2 mph N/A   Clear
7:54 PM 57.2 °F - 41.0 °F 55% 29.77 in 10.0 mi South 15.0 mph 20.7 mph N/A   Clear
8:13 PM 57.2 °F - 41.0 °F 55% 29.77 in 10.0 mi South 15.0 mph 20.7 mph N/A   Clear
8:34 PM 57.2 °F - 41.0 °F 55% 29.76 in 10.0 mi South 11.5 mph 19.6 mph N/A   Clear
8:53 PM 55.4 °F - 41.0 °F 58% 29.76 in 10.0 mi South 11.5 mph - N/A   Clear
9:13 PM 55.4 °F - 41.0 °F 58% 29.75 in 10.0 mi South 12.7 mph 17.3 mph N/A   Clear
9:34 PM 55.4 °F - 42.8 °F 63% 29.75 in 10.0 mi South 13.8 mph 18.4 mph N/A   Clear
9:53 PM 55.4 °F - 42.8 °F 63% 29.75 in 10.0 mi South 13.8 mph - N/A   Clear
10:13 PM 55.4 °F - 42.8 °F 63% 29.74 in 10.0 mi South 13.8 mph 19.6 mph N/A   Clear
10:34 PM 55.4 °F - 42.8 °F 63% 29.73 in 10.0 mi South 12.7 mph 19.6 mph N/A   Clear
10:53 PM 55.4 °F - 42.8 °F 63% 29.73 in 10.0 mi South 15.0 mph - N/A   Clear
11:13 PM 53.6 °F - 42.8 °F 67% 29.72 in 10.0 mi South 13.8 mph - N/A   Clear
11:34 PM 53.6 °F - 42.8 °F 67% 29.71 in 10.0 mi South 13.8 mph 18.4 mph N/A   Clear
11:53 PM 53.6 °F - 42.8 °F 67% 29.70 in 10.0 mi South 13.8 mph 23.0 mph N/A   Clear